Tracking 27107 objects as of 21-Mar-2023
HD Live streaming from Space Station
objects crossing your sky now

JIADING 1

Track JIADING 1 now!
10-day predictions


NORAD ID: 43713
Int'l Code: 2018-094D
Perigee: 465.7 km
Apogee: 484.9 km
Inclination: 97.4 °
Period: 94.0 minutes
Semi major axis: 6846 km
RCS: Unknown
Launch date: November 19, 2018
Source: People's Republic of China (PRC)
Launch site: Jiuquan Satellite Launch Center, China (JSC)
Your satellite tracking list
Your tracking list is empty




NASA's NSSDC Master Catalog

Two Line Element Set (TLE):
1 43713U 18094D   23079.89174853  .00017378  00000-0  55280-3 0  9995
2 43713  97.3911  93.6266 0014061  93.9660  23.1662 15.32565497241113
Source of the keplerian elements: AFSPC